Location: Newark
(7.0858°N, 171.3717°E)
Time: 06:46:22
(UTC+00:00)

Courier 1B - Pass Details

Date: 01 December 2020
Orbit: 962 x 1209 km, 28.3° (Epoch: 19 January)

Event Time Altitude Azimuth Distance (km) Brightness Sun altitude
Rises 06:11:40 0° 236° (WSW) 3,664 12.8 0.1°
Reaches altitude 10° 06:14:21 10° 235° (SW) 2,700 11.7 -0.5°
Maximum altitude 06:20:49 75° 150° (SSE) 990 7.6 -2.0°
Drops below altitude 10° 06:27:18 10° 65° (ENE) 2,701 9.1 -3.5°
Enters shadow 06:28:48 - 64° (ENE) 3,239 9.5 -3.8°
Sets 06:29:58 0° 64° (ENE) 3,666 - -4.1°
